LEMUR-2-NICHOL (46503 NORAD) Tracking and Keplerian Element Data

This shows tracking and keplerian element data for the satellite.

Feedback or suggestion? Click here.




ElementValue
Catalog46503
NameLEMUR-2-NICHOL
Epoch Orbit897
Epoch Day332.76943899
Epoch Year2020
RAAN265.5715
Inclination97.6694
Eccentricity0.0012598
Argument of Perigee54.3683
Mean Anonmoly305.8713
Mean Motion15.0211019
Decay Rate2.818E-05
L11 46503U 20068T 20332.76943899 .00002818 00000-0 21869-3 0 9997
L22 46503 97.6694 265.5715 0012598 54.3683 305.8713 15.02110190 8977

Live tracking and technical data element details for LEMUR-2-NICHOL (NORAD 46503). LEMUR-2-NICHOL can be tracked NOW for your location showing map with azimuth and elevation plus other details from your city location.

Track the satellite on the map from your city or location and see movement details for azimuth, elevation, latitude, longitude, range, height, and movement on the map or in text.







IsCatalogInMostPopularTable: catalog: 46503, numindb: 16
Update: records affected: 1



GetName: 46503 LEMUR-2-NICHOL

Hit Count: updated at: Sun, 29 Nov 2020 10:40:13 GMT